Theta_e
314 314 315 316 317 318 319 319 319 320 319 314 315 315 314 321 321 320 318 320 321 325 339 343 345 345 347 348 350 349 346 356 355 349 349 345 338 337 336 333 331 328 336 339 339 340 339 342 342 342 338 331 331 330 326 332 338 340 341 342 342 342 342 341 341 341 341 343 343 342 342 342 341 342 342 342 341 341 341 340 338 337 338 336 332 333 333 333 332 332 330 326 327 330 332 334 334
314 314 315 316 318 317 319 320 320 319 318 313 314 317 315 320 321 318 317 321 317 324 347 348 350 354 352 350 348 346 345 348 346 346 346 339 338 337 336 334 328 328 335 338 340 340 340 342 342 341 337 334 334 330 329 337 341 341 342 342 342 342 341 341 340 341 342 342 342 342 342 342 342 341 341 341 341 341 341 339 338 337 337 334 333 335 334 333 333 333 333 330 330 330 332 334 334
313 314 316 317 317 318 324 322 319 315 314 313 314 318 317 317 318 317 318 320 320 333 353 348 351 356 353 353 346 345 345 345 344 344 342 339 339 338 338 333 327 328 332 337 340 339 340 342 342 341 337 336 335 332 334 340 343 342 342 341 342 342 341 341 341 342 342 342 342 342 341 341 341 341 340 340 341 340 340 339 339 339 336 333 333 334 334 334 334 334 333 332 331 331 333 334 334
313 316 317 318 318 321 330 324 322 316 311 313 313 318 320 318 318 318 318 324 337 346 353 348 349 347 350 355 346 350 351 347 345 342 342 341 340 339 338 333 330 331 333 338 339 338 340 341 342 340 337 337 336 334 336 341 343 342 342 341 342 341 341 341 341 342 342 342 341 341 341 341 341 339 339 339 340 340 340 340 339 337 332 329 328 329 331 332 333 334 334 332 331 332 332 333 334
313 317 317 318 321 322 326 320 320 316 312 315 313 317 322 318 317 318 317 330 351 354 354 353 350 344 348 352 348 355 351 347 345 342 343 341 339 339 337 334 333 335 337 338 337 339 340 341 341 339 337 337 338 336 338 342 342 342 342 342 342 341 341 341 341 342 341 341 341 341 341 340 340 339 339 339 340 340 340 339 336 331 328 328 326 326 330 331 331 331 332 332 332 331 330 331 332
314 317 317 317 318 318 320 317 316 316 315 319 316 318 320 318 318 317 317 324 339 346 348 351 349 349 354 349 347 350 344 347 346 342 343 340 339 337 336 334 333 337 338 337 338 339 339 340 340 338 338 338 338 337 339 342 342 342 341 342 341 341 342 341 341 341 341 341 341 341 341 341 340 340 340 339 339 339 338 337 334 330 329 329 326 328 331 332 331 331 332 332 331 329 328 329 330
315 317 319 318 317 318 323 320 317 318 318 318 318 319 319 318 318 317 318 318 322 333 339 348 348 349 354 347 348 346 341 346 344 342 342 340 339 335 335 332 334 338 338 338 338 338 339 340 339 338 338 339 338 337 339 341 342 342 341 341 341 342 341 341 341 341 341 340 340 340 341 341 340 340 339 339 339 338 337 335 333 330 327 326 324 328 331 331 330 330 331 329 328 327 328 329 329
316 319 320 320 320 319 323 321 317 319 318 316 317 318 318 319 319 317 318 318 318 324 331 350 353 344 351 353 355 346 340 344 342 343 342 339 338 335 333 332 335 338 337 338 338 339 340 339 338 338 338 338 338 337 339 341 342 341 341 341 341 342 341 341 341 341 341 340 340 340 340 340 339 339 337 336 337 336 335 333 331 328 326 324 324 327 329 328 327 326 327 326 327 328 329 330 330
317 318 319 320 320 318 318 318 317 317 318 319 317 319 322 320 318 318 317 316 318 325 332 352 353 340 350 357 354 343 339 342 342 342 340 339 337 334 333 333 334 335 337 338 338 339 339 339 337 337 338 338 337 337 340 341 341 341 341 341 341 341 341 341 340 340 340 339 339 339 339 338 336 334 331 331 330 329 328 327 327 325 325 324 323 328 329 328 327 324 325 326 327 328 329 330 330
317 317 320 320 318 315 314 317 317 316 318 320 317 318 320 317 317 316 317 315 318 327 340 352 356 354 355 356 350 342 341 341 341 341 339 338 336 334 334 334 333 333 336 338 338 339 338 337 337 338 338 337 337 338 340 341 340 341 341 341 341 340 340 340 340 339 338 337 335 335 334 331 328 325 323 323 322 321 320 320 321 322 323 323 323 328 330 329 328 325 324 325 327 328 329 330 330
322 318 318 318 316 314 314 316 319 319 319 318 317 320 318 317 316 315 317 316 317 322 338 350 359 364 357 353 346 340 340 340 340 339 339 338 335 335 334 335 335 334 336 337 338 338 338 337 337 338 338 337 337 339 340 340 340 341 341 341 341 340 339 339 338 337 335 333 330 329 327 325 324 322 320 320 320 320 319 317 317 319 322 322 322 328 330 330 329 326 324 325 326 327 328 329 329
322 320 319 319 316 315 316 315 318 320 319 318 317 320 319 317 316 317 318 314 321 324 334 349 355 364 361 353 344 339 339 339 339 339 338 337 336 335 335 336 336 336 338 338 337 337 338 338 338 338 337 336 336 339 340 340 341 340 341 340 340 340 338 337 336 334 332 329 327 327 327 327 326 325 323 321 322 321 319 316 314 317 320 321 322 326 329 329 330 328 325 324 325 326 327 328 328
321 321 321 320 318 318 318 316 320 323 320 321 319 319 319 317 318 319 316 315 326 325 326 344 354 364 363 350 342 338 339 338 339 339 337 337 336 336 336 336 336 336 338 338 337 337 338 338 338 337 336 336 336 338 339 340 341 340 340 340 340 338 337 337 334 333 331 329 330 330 330 330 329 328 325 322 323 321 318 314 312 314 319 320 320 325 329 329 330 329 326 324 324 324 325 326 327
320 320 320 318 318 320 319 316 320 321 318 322 321 319 318 318 321 317 317 316 320 322 330 346 352 362 358 347 345 339 339 339 339 338 337 337 337 336 335 335 335 336 337 336 336 337 337 337 337 336 336 337 337 339 340 340 340 340 340 339 339 337 337 335 333 333 332 332 332 331 330 330 330 329 325 323 324 323 322 319 315 313 315 319 320 323 327 328 329 329 328 325 323 323 323 324 326
315 318 321 320 318 317 317 315 317 316 316 322 320 319 318 319 320 315 315 313 320 331 343 349 345 353 355 353 352 340 339 339 338 338 337 337 336 336 335 335 335 336 336 336 336 336 336 337 337 336 336 338 338 340 340 340 340 340 340 339 338 337 336 334 334 333 333 333 332 331 331 330 330 327 324 324 324 325 327 327 324 318 315 316 317 320 323 326 328 328 329 328 326 324 323 323 323
314 320 322 318 317 315 314 315 316 315 317 320 318 316 315 318 316 316 321 324 338 346 351 352 344 346 351 353 351 340 339 339 338 338 337 337 336 336 336 336 336 335 335 335 335 335 336 336 336 335 336 337 339 340 340 340 340 340 340 338 337 337 335 335 334 333 333 333 333 333 332 332 330 327 325 324 324 325 326 328 328 327 324 320 317 316 318 322 326 327 327 328 328 326 325 324 323
315 319 320 315 316 314 313 315 315 317 319 319 318 315 315 319 313 320 339 350 356 354 352 353 347 348 351 348 344 339 339 338 338 337 336 337 336 336 337 337 337 336 336 336 336 335 335 335 336 335 335 338 340 340 340 340 340 340 340 339 337 336 335 334 333 333 334 335 335 334 334 334 333 329 326 324 324 325 326 327 328 330 331 329 324 319 317 317 321 325 326 326 326 326 326 326 324
314 319 318 314 315 313 314 316 315 318 320 318 318 316 316 319 312 319 344 359 356 354 353 351 347 345 345 342 340 339 339 338 337 336 336 337 336 337 337 337 337 338 338 340 341 339 337 336 336 336 337 339 340 340 340 340 340 340 339 339 337 336 335 333 332 334 336 336 336 336 335 336 336 333 331 330 330 330 330 330 331 332 333 333 331 329 324 318 317 318 322 324 324 324 326 328 327
314 320 317 312 314 314 316 316 315 317 318 318 318 318 317 316 315 314 329 352 355 360 356 348 348 344 341 340 339 339 338 337 336 335 336 336 336 337 337 337 337 338 339 341 343 341 340 338 338 338 338 339 340 341 340 341 341 339 339 338 336 336 335 332 333 335 336 336 336 336 336 336 338 338 337 337 336 336 335 334 335 334 333 333 333 333 333 329 323 318 316 317 320 323 327 330 331
314 317 314 312 314 314 315 315 315 316 317 320 316 315 316 313 316 315 326 351 359 363 357 350 351 347 343 340 339 339 337 337 336 335 336 335 336 336 336 337 336 337 338 339 340 340 340 339 340 340 339 340 341 340 340 341 340 339 338 337 336 335 334 333 335 335 336 336 336 336 336 336 337 338 339 338 337 337 337 337 337 336 334 334 334 333 333 334 332 329 322 318 319 324 327 329 330
314 314 313 315 315 314 314 314 315 315 316 317 315 315 314 315 329 340 345 354 361 358 352 351 350 347 343 340 338 339 337 336 336 335 335 335 336 336 336 336 336 334 336 338 338 338 339 339 341 340 340 340 340 340 340 340 339 338 337 336 336 334 334 335 336 336 336 336 336 336 336 336 336 335 336 336 337 337 338 337 337 337 336 335 335 333 333 334 334 334 331 327 327 328 329 331 332
315 313 315 317 314 315 314 313 314 314 315 313 315 314 311 325 353 366 352 340 353 354 348 348 346 344 342 340 339 338 338 337 335 335 335 336 336 336 336 335 336 334 335 336 335 336 338 339 341 340 340 340 340 340 340 339 338 338 337 336 335 334 334 335 336 337 337 336 337 337 336 336 336 336 337 337 337 337 337 337 337 337 337 336 335 334 334 335 335 335 334 333 333 333 333 334 334
315 314 316 317 314 314 315 314 313 313 314 313 316 312 316 337 354 358 356 347 350 348 347 348 344 342 342 340 340 339 338 337 336 336 335 336 336 336 336 336 336 336 336 335 334 336 338 339 340 339 339 340 340 340 339 339 338 337 337 336 335 334 334 335 337 337 337 337 337 337 337 337 337 337 338 338 337 337 337 337 337 337 337 337 335 335 336 336 337 336 336 335 335 336 336 336 336
314 314 315 316 314 314 315 315 314 314 313 313 315 310 318 329 331 347 358 354 350 348 347 346 343 342 342 341 340 340 339 338 336 336 336 336 335 335 335 336 336 336 337 336 335 336 337 339 339 339 339 339 340 340 340 339 338 337 337 336 334 333 334 336 337 337 338 338 337 338 338 338 338 338 338 338 338 337 337 337 337 337 337 336 335 336 337 337 337 337 337 336 336 336 336 336 336
313 313 314 315 314 314 315 316 314 315 314 312 313 310 318 326 333 355 358 348 349 349 346 345 344 343 342 342 342 341 339 338 337 336 336 335 335 335 335 335 336 336 337 337 336 336 337 338 338 339 339 339 340 340 339 339 338 337 337 335 333 334 335 337 338 338 338 338 338 338 339 338 338 337 338 338 338 336 337 337 337 336 337 337 337 337 337 337 337 337 337 337 337 336 336 337 336
313 313 314 314 314 315 315 317 316 315 314 312 313 311 328 342 343 351 350 348 349 346 346 345 344 344 343 343 342 341 341 339 337 336 336 335 335 335 335 335 336 337 337 337 336 335 335 336 337 339 340 340 340 339 340 338 337 337 336 335 334 335 337 337 338 338 339 338 338 339 339 338 338 338 338 339 338 337 336 337 336 336 337 337 337 337 337 337 337 337 337 336 336 336 336 336 336
312 314 314 314 314 315 314 316 315 315 313 314 313 310 336 348 340 342 347 347 347 345 347 346 344 345 343 343 342 341 341 338 337 336 335 335 335 335 335 336 337 337 337 336 336 335 334 334 336 339 340 340 339 339 339 338 337 336 336 335 335 337 337 338 338 338 338 338 338 339 339 339 339 339 339 339 338 337 336 337 337 336 336 337 337 336 336 337 337 337 336 336 335 335 335 334 335
310 312 313 313 314 315 314 314 313 313 313 314 313 316 340 346 336 343 350 347 347 347 347 346 346 345 344 344 342 340 339 338 337 336 335 335 335 335 335 336 338 338 337 337 337 336 336 335 336 338 339 339 339 339 339 338 336 336 336 335 336 337 338 338 338 339 339 338 339 339 339 339 340 339 339 338 337 336 336 337 337 337 336 336 336 336 336 337 336 336 335 334 334 333 333 333 333
310 311 311 311 312 313 313 313 313 312 313 315 314 316 331 342 340 345 349 347 346 347 348 347 346 345 344 343 341 340 338 337 336 336 336 335 336 336 336 337 338 338 338 337 337 337 337 336 337 337 337 338 338 339 340 338 336 336 336 335 336 337 337 338 338 339 339 338 339 339 339 339 339 338 338 337 336 336 336 336 336 336 336 336 336 336 335 335 335 334 334 333 333 333 332 332 332
310 310 311 312 311 312 312 312 313 312 313 314 314 314 319 333 344 347 348 348 346 348 349 346 345 345 343 342 340 340 338 336 336 336 336 336 336 336 336 338 338 339 338 337 337 336 337 337 337 336 336 337 338 338 339 338 336 336 336 336 336 337 337 338 338 339 339 339 338 338 339 339 339 338 338 337 336 336 336 336 336 335 335 335 335 335 334 334 334 333 332 332 332 331 331 331 331
311 311 311 312 312 312 312 313 314 312 313 314 314 315 316 328 342 349 348 347 347 349 348 344 344 344 342 341 340 339 338 336 335 336 336 336 336 337 337 338 338 339 338 337 336 336 337 337 338 337 337 337 338 337 337 337 336 336 337 337 336 337 337 338 338 339 338 338 338 338 338 338 339 338 337 337 336 336 336 336 336 335 335 334 334 334 334 333 333 332 331 331 331 330 330 329 329
311 311 310 311 311 312 312 312 313 312 312 313 311 314 321 333 343 349 348 346 347 348 347 345 344 342 342 341 339 339 337 336 336 336 336 335 336 337 338 339 338 339 338 338 337 337 337 338 338 338 337 337 337 336 335 335 336 336 337 337 337 337 338 338 338 338 337 337 338 337 337 338 338 338 337 336 336 336 336 336 336 335 334 334 333 333 333 332 331 331 330 330 330 329 329 328 328
311 310 311 311 310 311 312 312 312 312 313 312 311 324 338 343 344 346 346 347 346 348 348 345 344 342 341 340 339 338 338 337 336 336 336 335 336 338 339 339 339 338 339 338 338 338 338 338 338 337 336 336 335 335 335 336 336 337 337 337 338 338 338 338 337 337 337 338 337 336 336 338 338 337 337 336 336 336 335 335 335 334 333 333 333 332 332 331 331 330 329 329 328 327 327 327 327
312 310 310 310 310 311 311 311 310 311 313 311 311 329 348 346 344 346 346 346 347 348 347 345 344 342 340 340 339 338 338 338 337 336 336 335 336 338 339 339 339 339 339 339 338 339 339 338 336 335 335 335 334 334 335 336 337 337 338 338 338 338 337 337 337 337 337 337 336 336 337 338 338 337 337 336 335 335 334 334 334 333 333 333 332 332 331 330 329 329 328 327 325 325 324 323 322
311 310 312 311 310 310 310 311 310 310 313 314 311 320 343 347 345 347 345 346 348 347 346 345 344 342 341 340 339 338 338 338 337 337 336 336 337 338 339 339 339 339 339 339 339 339 339 337 337 336 336 336 335 335 335 336 336 337 337 337 337 337 337 336 336 336 336 336 336 337 338 337 337 337 336 336 335 334 334 333 333 332 331 331 331 330 329 328 327 326 325 323 322 321 318 317 316
311 312 313 312 311 311 311 311 311 310 310 314 312 318 341 348 346 348 346 346 347 347 345 344 344 343 342 340 339 338 338 337 336 336 337 336 337 338 338 338 338 338 338 338 338 339 338 337 337 337 336 336 335 335 336 336 336 336 336 336 335 335 335 335 336 336 335 335 336 336 336 336 336 336 335 334 334 333 332 332 331 330 329 329 328 327 326 324 324 323 322 320 319 316 313 311 313
311 312 311 311 312 309 311 311 311 312 310 314 318 329 345 346 345 347 347 347 348 347 346 346 345 344 344 342 340 339 338 337 336 336 337 336 337 337 337 337 337 337 337 337 337 338 338 338 337 336 335 335 335 336 336 335 336 335 335 335 335 334 335 335 335 335 335 335 335 335 335 335 334 334 333 333 332 331 331 331 330 329 327 326 325 323 322 321 320 320 319 317 314 312 310 309 311
309 311 310 311 311 309 312 310 310 310 309 322 332 341 347 344 345 347 346 349 349 347 347 346 345 344 344 343 342 341 339 338 337 337 337 337 337 337 336 336 336 337 336 336 336 337 338 337 336 336 335 335 336 336 336 336 336 335 335 334 334 333 333 335 335 334 335 334 334 334 333 332 332 332 332 331 331 330 330 329 328 326 324 322 321 319 318 317 317 318 316 313 310 310 309 308 309
308 310 310 311 310 311 313 309 319 319 310 330 341 342 345 344 344 346 346 348 347 345 345 344 344 344 343 343 343 342 340 339 338 337 337 337 337 336 336 335 335 335 334 335 336 336 336 336 335 335 336 336 336 336 336 336 336 335 335 334 333 333 332 333 334 333 333 333 332 331 330 330 330 330 330 329 329 328 327 326 324 322 320 319 318 316 313 311 311 313 313 311 309 308 308 307 307
309 310 312 313 310 311 310 310 336 340 328 339 342 339 344 345 346 347 344 344 344 344 343 342 342 342 342 342 341 341 341 340 339 338 338 337 336 336 335 334 334 334 333 333 335 335 335 335 335 335 336 336 335 335 335 335 335 334 334 333 333 333 331 331 332 330 330 330 329 328 328 327 327 328 327 327 326 325 324 323 321 320 317 316 314 311 308 306 307 309 310 309 308 307 307 307 307
309 310 311 313 310 310 311 317 340 346 338 340 340 339 344 345 348 349 343 342 342 342 343 342 342 340 341 341 340 341 340 339 339 339 338 337 336 336 335 334 334 333 333 334 334 335 335 335 335 335 335 335 335 335 335 334 334 333 332 331 332 331 329 330 330 327 326 327 326 325 324 324 324 324 324 324 323 323 322 321 319 317 315 312 310 307 305 305 306 307 308 308 307 307 306 306 306
309 310 309 311 310 310 315 327 341 345 342 342 335 334 342 346 348 348 344 344 343 341 342 343 342 340 340 341 341 340 339 338 337 338 338 338 336 336 335 334 334 334 334 334 333 334 334 335 335 334 333 334 334 334 334 334 334 333 332 331 330 329 326 327 328 325 325 325 324 323 322 321 321 321 321 321 320 320 319 318 317 314 312 309 307 305 305 305 306 307 307 307 307 307 306 306 305
309 310 309 309 310 309 313 324 334 332 337 342 332 324 338 348 347 346 345 345 344 342 342 341 341 340 340 340 340 340 339 338 337 337 338 338 337 336 335 335 334 334 334 333 334 333 334 334 333 333 332 333 334 334 334 334 334 333 332 332 331 330 327 324 325 325 324 324 322 321 320 319 319 319 319 318 318 318 317 315 313 311 309 307 305 304 305 305 306 307 307 306 307 306 305 305 305
309 310 309 308 309 309 311 323 335 335 336 342 337 331 340 345 343 344 346 345 345 343 342 341 340 340 340 339 340 339 339 338 337 338 338 338 337 336 335 335 335 334 334 334 334 334 334 333 333 332 331 332 333 333 334 334 334 332 332 332 330 330 328 324 323 323 322 321 320 319 318 318 317 317 317 317 316 315 314 312 310 309 307 306 305 305 306 306 306 306 306 306 305 305 304 303 303
311 310 309 309 309 309 310 317 329 337 340 344 343 336 336 341 342 343 345 346 347 344 342 341 339 339 339 338 339 339 339 338 336 337 338 337 337 336 335 335 335 334 334 334 334 334 334 333 333 332 330 332 333 333 334 334 334 333 332 331 329 327 327 324 322 321 320 319 319 317 317 316 316 316 316 315 314 313 312 310 309 308 307 306 306 306 306 306 306 305 305 305 304 303 302 301 301
309 308 309 308 308 310 311 313 318 329 337 341 342 335 329 338 343 345 347 347 346 345 342 340 339 338 338 338 338 339 339 338 336 336 337 337 336 336 336 335 335 335 334 335 335 334 334 334 333 332 331 332 333 333 334 333 333 333 331 330 329 326 324 322 320 319 318 318 318 316 315 315 314 315 314 313 312 311 310 309 308 307 306 306 306 306 305 305 305 305 304 303 302 302 301 300 299
307 307 310 309 312 317 320 323 324 328 331 330 337 338 329 332 339 344 348 346 342 343 341 340 339 338 337 337 337 338 339 338 336 336 336 336 336 336 336 335 335 335 335 335 335 334 334 334 332 331 330 332 332 332 333 333 332 332 331 330 330 327 324 321 319 317 316 316 316 314 314 313 313 313 313 312 311 309 309 307 307 307 306 306 305 305 305 304 304 303 303 302 302 301 301 299 297
307 309 311 311 314 317 320 324 323 322 321 320 333 340 331 329 337 341 343 342 340 340 340 341 340 339 337 337 337 338 339 339 337 336 336 336 336 336 336 336 335 336 336 335 335 334 333 333 332 330 330 331 332 331 331 332 331 331 331 330 330 328 324 322 320 318 316 316 316 314 312 312 312 312 311 311 310 309 308 307 306 306 306 305 305 305 304 303 302 302 301 302 301 301 300 298 296
308 310 312 311 312 312 314 318 318 318 315 318 330 338 335 334 337 340 340 340 340 339 339 340 339 339 338 336 337 337 338 339 337 336 336 335 336 336 336 336 336 335 336 335 335 334 333 332 331 329 329 330 331 331 330 331 331 331 330 330 329 326 324 323 321 319 317 316 315 313 311 311 311 311 310 310 309 308 307 306 306 305 305 305 305 304 304 303 302 302 301 300 300 299 298 296 295
307 308 311 311 312 312 313 313 316 317 315 320 330 337 338 335 334 341 342 339 339 339 338 339 339 339 337 336 336 337 338 339 337 336 336 336 335 335 335 336 336 335 335 335 334 334 333 332 330 328 329 330 331 332 332 331 331 330 330 329 328 326 324 322 321 320 317 316 314 312 311 310 310 309 309 308 308 307 306 306 305 305 305 305 305 304 303 303 302 302 300 298 297 297 296 295 295
306 308 310 311 312 313 315 315 316 317 319 325 330 333 337 333 330 338 341 337 336 337 339 341 341 339 337 336 335 337 339 338 338 337 336 336 335 335 335 336 335 335 335 335 334 334 333 332 330 329 329 330 330 332 332 331 330 329 329 328 327 325 324 322 320 319 317 315 313 311 309 309 309 308 308 308 307 307 306 306 305 305 305 304 304 304 303 303 302 301 299 296 296 296 295 295 295
307 308 309 310 315 319 319 317 318 323 329 334 335 336 338 333 330 336 339 338 337 340 344 344 342 339 337 337 336 336 338 338 337 337 336 336 335 335 335 335 335 335 334 335 334 334 333 332 331 330 330 331 331 332 332 331 330 328 328 327 326 324 323 321 319 316 315 313 311 309 308 308 308 308 307 307 307 307 306 306 306 305 305 304 304 304 303 302 302 300 298 296 295 295 295 295 294
309 307 308 309 313 320 318 314 319 325 326 330 334 338 339 333 332 340 342 341 340 342 346 343 341 340 337 338 337 336 338 337 337 337 337 336 335 335 335 335 335 334 334 334 334 333 333 332 331 331 331 331 332 332 332 330 329 328 327 326 325 323 322 321 318 315 312 310 309 308 307 307 308 307 306 306 306 306 306 306 305 305 304 304 303 303 303 302 301 300 297 296 295 295 295 295 295
309 306 309 310 310 317 319 316 322 327 321 324 331 338 341 333 331 342 345 343 342 342 343 341 339 339 338 338 337 336 337 337 336 337 337 336 335 335 335 334 334 334 334 333 333 333 332 331 331 331 330 331 331 331 331 330 330 328 326 325 323 322 321 319 317 314 311 308 307 306 307 307 307 307 306 306 305 306 306 305 305 305 304 304 303 303 302 301 300 299 297 296 295 295 295 295 295
309 308 309 313 313 314 318 318 322 326 324 326 329 334 341 335 333 349 351 343 343 341 339 340 338 338 339 338 337 337 337 337 336 337 337 336 335 335 334 334 334 333 333 332 332 332 331 330 330 330 330 331 331 331 331 330 329 328 326 324 323 322 320 317 315 313 309 307 306 306 306 306 306 306 306 306 305 305 305 305 305 304 304 303 302 302 302 301 300 299 297 296 295 295 295 296 295
308 309 307 313 316 311 313 319 321 324 327 329 328 331 340 338 338 355 354 341 341 340 339 340 338 338 338 338 338 337 336 337 336 336 337 336 335 335 334 333 333 332 331 331 331 330 329 328 328 329 330 331 331 330 330 329 327 327 325 323 322 320 318 316 314 312 309 307 306 305 306 306 306 306 306 305 305 305 305 305 304 304 303 303 302 302 301 301 300 299 297 295 295 295 295 295 295
306 309 308 309 311 310 312 315 317 321 328 332 333 334 342 343 338 347 348 338 337 340 339 339 338 338 338 337 337 337 336 337 336 336 336 335 335 334 334 333 332 331 329 328 329 328 327 326 326 328 329 330 329 328 327 327 326 325 324 322 320 318 316 315 313 311 309 307 305 305 305 306 306 305 305 305 305 304 304 304 304 304 303 303 302 302 301 301 299 297 296 295 295 295 295 295 294
306 310 312 310 311 313 312 311 315 319 322 329 335 334 340 342 333 335 340 336 336 338 338 339 338 337 337 337 337 336 336 336 336 336 335 334 334 332 332 332 330 328 327 326 326 325 324 324 325 327 328 328 327 326 325 325 324 324 323 321 319 317 315 314 311 309 308 306 305 305 305 305 305 305 305 304 304 304 304 304 304 303 303 303 302 302 301 300 298 295 295 295 295 296 296 295 294
Wind_Speed
14 15 15 15 12 4 1 3 2 3 3 2 3 1 1 2 1 3 5 6 3 2 1 1 5 6 4 3 5 6 3 2 3 3 3 3 5 12 8 11 26 29 28 27 25 23 22 24 23 22 22 21 19 18 17 16 17 16 16 17 17 17 17 18 18 17 17 16 15 15 15 15 15 14 13 12 11 11 10 10 10 9 9 9 10 11 10 10 9 9 9 10 12 13 13 14 13
13 14 14 12 9 5 2 3 3 3 5 2 3 2 2 1 2 2 4 5 2 4 4 1 4 3 3 3 3 3 3 2 1 2 1 5 12 11 10 20 28 27 28 26 24 23 22 23 22 23 22 20 19 18 18 17 17 16 16 17 17 17 17 17 17 17 16 15 15 15 14 15 14 14 13 12 11 10 10 10 10 9 9 8 9 10 9 9 9 10 10 11 12 13 13 13 13
13 13 14 10 6 5 2 3 2 1 4 1 4 3 2 2 2 2 3 5 6 6 3 2 4 4 4 5 4 3 1 1 2 1 3 8 9 9 17 25 27 27 27 27 25 23 23 22 22 22 21 21 20 19 19 18 17 16 16 17 17 16 16 16 16 16 15 15 15 14 14 14 14 13 12 11 11 10 10 9 8 8 7 7 8 8 7 8 8 10 10 11 12 13 13 12 13
11 11 12 7 3 4 3 4 1 1 3 2 3 4 2 2 5 4 5 6 7 4 1 2 2 2 2 3 2 2 1 1 2 3 4 6 7 13 21 24 26 27 27 27 26 25 24 22 22 21 21 21 20 19 19 18 17 16 16 16 16 16 16 16 15 15 15 15 14 14 13 13 13 12 11 11 10 9 9 8 6 6 5 6 6 6 6 7 8 9 10 10 12 12 12 11 11
8 7 9 4 3 2 3 2 2 2 3 2 1 4 4 3 5 4 5 6 6 3 1 2 1 2 3 2 0 2 1 2 2 5 7 7 12 19 22 23 26 26 26 26 26 26 24 23 22 21 21 21 19 19 19 18 17 16 16 16 16 16 15 15 15 15 15 14 14 13 12 12 11 11 10 10 9 8 7 6 5 4 5 5 5 6 7 8 8 9 10 10 10 11 11 11 10
5 4 7 6 3 1 3 1 2 2 4 3 2 5 4 6 3 6 4 7 5 2 2 2 0 1 2 2 2 3 3 2 4 6 10 14 19 23 23 25 26 25 25 25 25 25 24 23 21 21 20 20 19 19 19 18 17 17 16 16 15 15 15 15 15 14 14 14 13 12 12 11 11 10 9 9 8 6 5 4 4 4 5 5 6 7 8 8 8 9 9 9 9 10 11 10 9
4 2 4 5 2 1 4 3 4 4 4 4 3 5 5 8 4 3 2 4 4 2 2 2 2 4 0 1 2 5 6 1 4 8 15 21 24 25 26 26 26 25 24 25 25 25 24 23 22 21 20 19 19 19 19 18 17 17 16 15 15 15 15 14 14 14 13 13 12 12 11 10 10 9 8 7 7 6 5 4 3 4 5 5 6 7 9 8 7 8 8 9 9 10 9 8 7
4 1 1 3 1 3 4 3 4 4 3 3 4 5 6 8 7 1 4 2 2 3 1 2 4 3 2 2 2 6 9 3 7 13 21 25 27 26 27 27 26 24 24 24 24 24 23 22 22 21 20 19 19 19 19 17 17 16 16 15 14 14 14 14 14 13 13 12 12 11 10 10 9 8 7 6 6 5 4 3 3 4 4 5 6 7 9 9 8 7 8 8 8 8 7 7 6
4 2 0 2 2 1 2 1 3 3 4 5 5 6 7 7 6 5 0 1 1 3 3 3 5 4 1 4 3 3 7 8 15 20 24 26 27 27 27 26 25 25 24 24 24 23 23 23 23 21 20 19 19 19 18 17 17 16 16 15 14 14 14 13 13 12 12 11 11 10 9 9 8 7 6 6 5 4 4 3 3 4 4 5 6 8 9 9 8 7 7 7 7 6 6 5 4
3 2 1 1 2 2 1 2 3 3 5 5 5 8 9 8 4 6 5 3 0 2 5 1 4 3 3 4 2 2 2 12 21 22 23 25 27 27 26 24 24 26 26 25 24 23 23 23 22 21 20 18 19 18 18 17 17 16 15 14 14 14 13 13 12 12 11 11 10 9 8 8 8 8 7 7 7 6 5 4 4 4 5 5 6 7 8 9 8 6 6 5 5 5 4 4 3
2 2 2 2 2 4 4 3 4 4 5 4 5 7 8 7 2 2 3 4 2 2 4 0 3 3 5 3 1 1 7 13 19 22 23 24 25 25 24 22 22 25 27 26 24 22 22 22 20 20 19 18 19 18 18 17 17 16 15 14 14 13 12 12 12 12 11 10 10 9 8 8 8 9 8 8 8 7 6 5 4 4 5 5 5 6 7 8 8 7 5 5 4 4 3 3 2
2 0 3 3 4 4 5 4 5 5 5 3 4 7 5 5 3 5 3 1 3 3 4 4 3 4 5 2 2 5 10 11 15 21 23 24 24 23 22 22 22 24 25 23 22 22 21 20 19 18 18 18 18 18 18 18 17 16 16 15 14 13 12 12 12 11 11 10 10 9 8 8 9 9 9 9 8 8 7 6 5 5 5 5 5 6 6 7 8 7 6 4 4 3 2 2 2
3 3 5 3 4 4 5 4 4 4 4 3 5 6 3 3 6 7 1 2 3 4 5 6 4 6 4 1 4 6 8 10 15 20 22 23 22 21 21 22 23 23 22 21 21 20 20 19 19 18 18 18 18 18 18 18 17 16 16 15 14 13 12 12 11 11 10 10 9 9 8 8 9 9 9 9 9 10 10 9 7 5 5 5 5 5 5 6 7 7 7 5 4 3 2 2 3
3 4 5 3 2 4 5 3 3 4 4 5 5 5 2 2 6 3 3 2 4 3 3 3 6 6 3 3 4 5 7 13 18 19 20 21 21 21 21 22 22 21 20 20 20 20 20 20 19 20 20 19 19 19 18 18 17 16 16 14 14 13 13 12 11 10 9 9 9 9 8 9 9 10 10 9 10 11 12 12 10 7 5 4 4 4 4 4 5 6 7 5 4 3 2 3 3
4 2 4 3 1 3 4 3 5 6 5 5 5 4 2 4 5 1 1 3 4 3 1 3 4 2 3 6 5 6 12 18 19 20 21 21 21 21 21 21 21 21 21 20 20 20 21 21 20 21 21 21 20 19 18 17 16 16 15 14 14 14 13 12 10 10 9 9 9 9 9 10 11 11 10 10 10 11 12 13 12 11 8 5 3 2 2 2 3 4 5 5 4 2 1 2 3
3 3 4 3 4 4 5 4 6 5 5 6 5 2 1 7 3 1 3 3 2 1 2 2 1 1 5 6 6 15 21 21 21 22 23 22 21 21 20 20 20 21 21 20 20 21 21 21 21 21 21 21 21 20 19 18 17 16 15 14 15 14 13 12 11 10 10 10 10 9 10 11 12 11 11 10 10 10 11 11 12 11 10 8 5 3 1 1 1 2 2 3 3 3 2 0 2
2 4 2 4 5 6 6 5 6 5 5 6 5 3 4 8 2 2 2 5 5 2 4 2 3 2 3 5 17 27 26 24 25 25 24 23 22 20 19 19 19 20 20 19 19 20 21 21 21 21 21 21 21 20 19 18 17 16 15 15 15 15 13 12 11 12 12 11 10 9 10 10 11 11 11 10 10 9 9 9 10 10 9 8 7 5 2 0 1 1 0 1 2 2 3 2 0
2 3 4 6 5 6 7 8 7 6 5 6 6 6 8 7 2 1 2 6 4 4 5 3 6 8 10 18 28 31 28 28 27 26 23 21 20 19 18 19 19 19 20 19 18 19 20 20 21 21 20 20 21 20 19 18 17 16 16 15 15 14 13 12 13 13 12 11 10 9 9 10 10 11 11 11 10 9 8 8 8 7 7 8 8 7 5 2 0 1 1 1 1 2 3 3 2
3 3 5 8 6 6 8 10 8 6 6 7 7 7 8 7 2 1 1 1 4 5 4 4 9 10 14 21 27 27 27 27 25 24 22 19 19 18 18 19 20 20 20 19 18 19 20 20 20 21 20 20 20 20 19 18 17 17 16 16 15 14 13 14 13 13 11 9 8 7 8 9 9 9 9 8 7 8 7 6 6 5 5 6 7 7 6 5 4 2 0 1 1 3 4 3 3
3 3 5 7 5 6 7 9 10 8 8 8 8 5 6 5 2 2 3 5 4 5 4 6 8 9 12 15 20 24 25 23 23 23 22 20 20 21 21 22 22 22 21 20 21 21 21 20 20 20 20 20 20 19 19 18 18 17 17 16 14 14 14 14 13 11 10 8 6 6 7 7 7 6 6 5 5 6 5 4 4 4 4 4 5 5 5 6 6 5 4 3 2 3 3 3 3
2 3 5 5 5 6 7 8 10 9 8 8 6 4 3 4 3 3 6 5 3 5 6 7 12 15 15 14 17 21 21 20 21 21 21 21 20 22 23 24 26 28 27 25 25 25 24 22 21 21 21 21 21 20 20 19 18 18 17 16 15 14 14 14 12 10 9 7 5 5 5 5 5 5 5 4 4 4 4 4 3 3 3 4 4 4 4 5 6 6 5 4 4 3 3 3 3
2 4 4 4 6 5 6 7 8 8 6 6 4 2 3 2 3 2 7 5 5 5 5 9 15 17 17 17 17 17 17 16 17 18 19 20 21 23 23 23 26 28 30 29 30 30 27 24 22 22 22 21 21 21 21 19 19 19 17 17 15 14 13 13 12 10 8 6 5 4 4 4 4 5 5 4 5 4 4 4 3 2 3 4 4 4 4 4 5 5 5 4 4 4 4 3 4
3 4 2 4 5 5 4 5 7 6 6 6 5 3 2 5 2 1 4 3 6 5 6 12 14 16 19 18 17 16 15 15 16 19 21 22 25 25 24 25 26 26 29 31 32 30 27 22 21 22 22 21 21 21 20 19 19 18 17 16 15 14 13 12 11 9 7 4 4 3 2 2 2 3 4 4 4 3 3 4 3 3 3 4 4 4 4 4 5 4 4 4 3 3 4 4 4
6 5 3 4 5 6 5 3 6 6 7 7 2 2 0 2 2 1 2 3 5 4 8 14 14 17 19 17 16 16 15 15 17 21 24 26 28 27 26 26 26 25 26 28 29 27 24 22 20 21 21 20 20 19 19 18 18 17 16 16 15 14 13 11 10 8 6 4 3 3 1 1 2 2 2 3 3 2 2 3 3 3 3 4 5 5 4 4 4 3 3 3 3 3 3 4 4
7 7 3 3 3 5 6 4 4 4 5 4 1 4 3 3 2 3 3 4 2 5 12 14 15 16 16 16 16 15 14 15 17 20 23 23 23 22 22 23 22 21 20 22 25 24 23 23 22 21 20 20 19 18 17 17 16 16 15 16 15 15 13 11 9 7 5 3 3 2 1 1 1 1 1 1 1 1 1 2 2 2 2 3 4 4 4 3 3 2 2 1 2 2 2 3 4
6 7 4 2 2 5 6 7 7 4 2 1 1 3 2 1 3 2 2 2 4 9 13 14 16 16 15 14 15 15 15 15 16 19 21 19 18 18 19 19 19 19 17 18 22 23 25 25 23 22 21 19 18 17 16 15 15 16 15 15 15 14 13 10 8 6 4 3 3 2 1 2 2 1 0 0 0 1 1 2 2 3 2 3 3 3 3 3 2 2 2 2 2 2 3 4 4
2 6 6 5 5 6 4 6 8 4 3 5 4 2 0 2 0 1 2 4 8 11 13 13 15 15 14 13 13 13 13 15 17 19 17 15 17 18 19 19 18 18 17 19 22 23 25 25 23 22 20 18 17 16 16 15 15 16 15 14 13 12 11 9 8 5 3 3 3 2 2 2 2 2 1 1 1 1 3 4 4 4 3 3 3 3 3 2 2 2 2 3 3 3 4 4 4
1 5 3 6 8 8 7 7 5 2 4 7 8 3 1 2 1 4 6 8 10 12 14 13 13 13 12 12 11 9 9 13 17 18 16 15 17 19 20 20 19 18 18 19 21 22 23 24 23 21 19 17 17 17 17 15 15 15 15 13 12 11 9 8 7 5 4 4 3 3 3 3 2 2 2 2 3 3 5 6 5 4 4 4 4 4 4 3 2 2 2 3 3 4 4 4 5
1 4 1 5 4 8 12 10 5 5 4 6 9 3 2 1 3 6 9 11 10 12 13 12 12 10 10 10 8 7 7 11 14 16 16 15 16 18 20 19 18 18 18 19 19 21 22 22 22 21 18 17 17 18 17 16 15 14 14 13 11 10 8 8 8 6 5 5 4 4 4 3 2 2 3 4 4 5 6 7 6 5 5 5 5 4 4 3 2 2 2 3 3 4 4 5 6
2 3 3 3 2 6 11 9 7 7 5 6 9 3 5 4 4 7 10 13 13 12 12 10 9 9 9 8 7 7 7 9 12 14 14 13 15 17 18 18 18 19 18 18 19 21 21 21 21 20 19 18 18 18 18 17 15 14 13 12 10 9 8 9 8 7 6 6 5 4 4 3 2 3 5 6 5 5 6 7 7 6 6 5 5 4 3 3 2 2 3 4 4 5 6 6 6
3 3 3 4 3 4 5 9 10 9 5 8 8 5 5 4 5 10 10 13 15 13 11 8 7 8 8 8 8 7 6 8 11 13 13 13 15 17 17 17 18 19 19 19 21 21 21 21 21 20 19 19 19 18 18 17 15 14 12 10 9 8 8 8 7 7 7 6 5 4 3 2 3 4 5 6 5 5 5 7 7 6 6 4 4 4 3 3 3 3 4 4 5 5 6 6 7
3 5 4 5 6 3 1 6 12 12 3 7 9 4 4 3 6 11 9 11 14 13 11 9 8 8 7 7 8 7 5 7 10 12 12 12 15 17 16 17 19 21 20 20 22 21 21 21 20 20 19 18 18 18 17 17 16 13 11 9 8 8 8 7 7 7 6 6 6 5 3 3 4 5 5 5 5 5 5 6 6 5 4 3 4 4 4 4 4 5 5 6 6 7 7 7 7
2 7 6 6 8 4 2 4 8 11 5 5 9 4 1 3 7 9 8 11 13 12 12 11 9 8 7 6 6 7 6 6 8 10 12 14 16 17 17 18 20 22 22 22 22 22 21 20 19 19 19 18 17 18 17 17 15 12 10 9 8 8 8 8 7 7 7 7 7 5 4 4 6 6 5 5 5 5 5 5 5 4 3 2 3 3 4 5 5 6 7 7 8 8 8 8 7
5 5 5 3 5 5 4 4 3 9 9 6 7 5 3 4 9 11 9 10 12 12 13 12 10 7 7 6 6 6 7 7 7 9 13 15 17 17 18 19 19 21 22 22 23 23 22 20 20 18 18 17 16 17 17 15 14 12 11 11 10 10 9 8 8 8 9 9 7 7 6 6 7 6 5 5 5 5 4 3 3 2 1 2 3 4 4 5 5 6 6 6 7 8 9 9 7
7 5 4 1 2 6 7 4 3 9 10 8 7 7 5 4 10 12 9 10 11 12 12 11 10 8 7 7 6 6 7 7 6 8 13 16 18 17 17 19 19 20 21 22 24 24 22 21 20 18 17 16 16 17 17 16 15 14 13 12 11 11 11 10 10 10 10 9 9 9 9 8 8 7 6 6 5 4 3 2 1 1 1 3 3 3 3 4 5 5 5 5 6 8 9 8 6
9 6 5 5 3 5 7 5 5 8 9 8 9 8 6 8 11 11 8 8 10 10 10 9 9 9 8 8 7 7 8 7 7 9 12 16 17 17 18 19 20 20 21 22 24 24 24 22 19 17 16 16 17 18 18 18 16 15 14 14 14 14 14 14 13 11 10 10 11 11 11 10 9 8 7 6 5 4 3 1 1 2 2 3 3 2 3 3 3 4 4 5 5 6 8 8 6
9 8 6 6 4 4 4 4 5 7 7 5 8 8 7 10 12 11 10 9 10 11 11 10 10 10 10 10 9 9 8 6 8 10 12 16 17 17 19 20 20 20 21 22 23 24 24 23 20 18 17 18 20 21 20 20 18 17 17 17 18 18 17 16 15 14 13 12 13 12 11 10 10 9 8 6 4 3 1 1 3 3 3 3 2 2 4 3 3 3 4 6 7 9 13 14 9
5 7 7 6 5 4 5 4 4 6 6 3 5 9 7 10 12 12 12 12 12 13 13 12 11 9 9 10 10 8 6 6 9 10 11 15 16 18 20 20 22 22 22 23 23 23 23 22 20 20 20 22 22 22 22 21 19 19 18 19 20 19 18 17 17 16 15 14 13 12 11 11 10 8 7 5 3 2 2 2 3 2 1 2 3 4 4 3 4 4 4 8 11 15 18 18 13
3 3 6 5 5 3 4 3 1 2 5 3 4 8 5 8 11 10 10 10 9 10 12 12 11 9 8 10 9 7 7 8 10 9 10 14 16 18 20 20 21 21 21 22 22 23 23 22 22 22 23 23 22 21 21 20 19 18 18 20 20 20 19 18 17 17 15 14 13 12 11 9 8 6 5 3 2 2 2 2 2 1 2 3 3 4 5 6 6 6 6 9 12 17 21 21 20
2 3 4 3 4 5 4 3 3 3 3 4 6 5 3 6 6 5 6 5 4 6 8 7 8 9 9 9 8 8 8 9 10 9 9 13 16 18 18 18 19 18 18 19 21 22 23 23 23 23 24 23 22 20 19 19 19 18 18 20 20 20 20 20 18 16 15 13 12 10 8 7 5 4 3 2 2 2 2 2 2 3 4 4 4 5 8 9 10 10 9 10 11 16 21 23 23
3 3 3 3 4 5 4 3 3 5 3 5 8 5 1 5 6 5 4 4 4 5 6 6 7 8 8 7 8 9 8 8 10 11 9 10 14 17 17 17 17 17 18 20 21 22 21 23 24 23 22 21 20 19 19 20 20 21 22 22 21 21 21 19 18 16 14 13 11 9 7 5 4 3 3 3 3 3 3 3 3 4 5 6 6 8 11 12 12 12 12 12 13 16 20 24 24
3 3 6 6 5 2 3 4 4 5 1 1 5 3 2 5 8 8 5 5 6 6 6 8 8 8 8 8 9 10 8 7 9 10 9 9 13 17 17 17 17 17 19 21 22 22 21 22 22 20 19 19 19 19 20 22 22 24 25 25 24 23 21 17 17 16 13 11 10 8 7 5 4 3 3 4 4 5 5 4 4 6 8 8 9 10 13 14 14 15 14 14 15 15 18 23 23
4 5 8 8 4 0 3 5 4 3 3 4 4 4 2 5 9 9 7 7 8 7 8 8 7 9 10 10 9 8 7 7 8 8 9 9 12 15 16 18 18 18 20 21 21 21 21 20 19 17 17 19 20 21 22 23 24 25 25 24 24 24 21 17 16 15 13 11 9 8 7 6 4 4 5 6 6 6 6 7 7 8 10 11 11 12 14 15 16 17 16 17 18 16 17 22 20
5 6 9 8 5 3 1 6 3 3 3 2 2 3 3 4 8 10 9 8 8 8 9 9 9 10 11 10 9 8 8 8 8 8 8 9 12 14 16 18 18 19 20 20 19 19 19 17 16 16 17 20 22 22 23 23 24 25 24 23 22 21 20 19 17 15 13 11 10 8 7 6 6 5 7 8 8 8 8 9 9 11 12 13 13 14 16 17 18 19 18 18 19 19 20 23 23
5 7 9 8 7 7 3 5 3 1 3 2 5 2 4 3 5 9 10 10 10 9 11 13 13 12 12 11 10 9 9 9 10 9 8 10 13 15 17 17 18 19 19 19 19 18 17 16 17 18 19 21 23 23 23 23 24 24 24 24 22 20 19 20 18 16 14 12 11 10 8 8 7 7 8 9 10 10 10 11 12 12 13 14 15 16 17 18 18 19 19 18 20 22 22 23 25
5 8 7 4 4 4 3 4 3 3 2 5 8 6 4 3 3 9 11 12 13 11 12 13 13 13 12 12 12 11 9 9 10 10 8 11 14 17 19 18 18 19 19 19 19 19 18 18 20 21 20 21 22 23 24 24 25 24 24 24 23 21 21 20 19 17 15 13 12 11 10 9 9 9 11 11 11 11 12 12 13 14 14 15 16 17 17 18 19 19 20 20 21 23 23 23 25
5 7 6 5 3 3 4 2 4 3 3 6 9 9 5 3 3 7 9 11 15 13 11 13 13 14 14 13 13 12 10 9 10 10 10 12 15 18 20 19 19 19 19 19 20 20 20 19 20 19 19 21 22 23 24 25 25 24 24 24 23 23 22 21 20 18 16 14 13 12 11 10 11 12 13 13 13 12 13 13 14 15 15 16 17 17 18 19 20 20 21 21 22 23 23 23 25
5 5 5 5 1 3 4 4 3 3 6 6 8 8 5 4 5 6 9 11 16 16 14 16 17 16 15 13 13 12 10 9 10 10 11 11 12 16 20 19 20 21 20 20 21 21 19 18 19 20 21 23 24 25 25 25 25 24 24 24 22 23 23 21 20 18 16 14 13 13 12 13 13 14 14 15 14 13 14 15 15 16 16 16 17 18 19 19 20 21 21 22 22 22 22 23 25
5 4 6 6 2 1 1 1 0 4 6 4 6 9 4 5 6 8 12 11 14 17 16 18 19 17 16 15 13 12 10 10 10 10 11 10 9 13 18 19 19 22 23 22 21 21 19 18 19 20 21 23 25 27 26 26 25 25 24 23 22 22 22 20 18 17 15 13 12 13 14 14 15 16 16 16 15 14 15 16 16 17 17 17 17 18 19 19 20 21 22 22 22 22 22 24 26
8 5 7 8 5 4 6 5 2 3 3 4 3 8 3 4 4 8 15 15 16 18 17 16 15 15 15 14 13 11 10 11 10 10 11 11 10 12 16 18 19 21 23 23 22 20 19 18 20 21 21 23 25 26 27 26 26 25 24 23 22 22 20 19 17 15 14 13 12 13 14 15 16 17 17 17 16 16 16 16 17 17 17 17 17 18 19 20 20 21 22 23 23 23 23 25 26
7 3 5 5 5 6 6 4 3 3 1 3 1 4 4 3 4 8 13 13 13 13 11 9 8 9 10 10 11 11 11 10 9 10 11 11 14 16 17 18 18 20 23 23 22 21 20 20 22 23 25 26 26 26 27 27 25 24 24 22 22 21 19 18 16 14 13 13 13 14 15 16 17 18 18 17 17 16 17 17 17 17 17 17 17 18 19 20 20 22 23 24 24 24 24 25 25
5 2 4 3 5 5 3 3 4 4 2 1 1 4 4 4 4 5 4 5 5 8 7 8 9 9 11 10 11 12 10 9 9 11 11 12 16 19 19 19 18 19 22 23 22 22 22 21 23 25 27 28 27 27 27 26 25 24 23 22 21 20 19 18 16 15 14 13 13 15 17 17 17 18 18 18 17 17 17 18 18 17 17 17 17 18 19 19 20 21 23 24 25 23 23 24 24
3 3 5 4 4 6 3 1 1 4 3 1 2 3 3 1 4 4 0 3 6 8 9 10 11 12 13 12 11 12 11 9 10 10 11 12 16 19 21 21 20 20 22 24 23 23 23 22 24 25 26 27 27 27 26 25 24 23 22 22 21 21 20 18 17 16 15 15 15 16 17 18 18 18 18 18 17 17 18 18 18 18 17 17 17 18 18 19 19 21 23 24 24 23 23 24 23
5 6 6 3 3 2 3 1 3 4 3 3 1 3 2 1 2 4 2 6 8 9 10 10 10 12 14 12 12 13 12 10 10 10 12 13 15 18 21 22 22 21 23 24 24 24 23 23 25 26 25 26 26 26 25 24 23 23 22 22 21 21 20 18 17 17 17 17 18 18 18 19 19 19 19 18 18 18 19 19 19 18 17 17 18 18 18 18 19 21 22 23 23 22 23 24 22
4 6 5 4 4 3 1 3 1 2 3 3 3 3 3 4 4 3 4 9 10 10 10 10 12 14 14 13 13 14 13 11 10 10 10 12 14 17 20 23 24 22 23 25 25 24 23 23 25 26 26 26 25 24 23 22 22 22 22 22 21 21 20 19 18 18 18 18 19 19 19 20 20 19 19 19 19 19 20 19 19 19 18 18 18 18 18 18 19 21 22 22 22 21 23 23 21
2 4 5 3 4 4 2 3 2 3 3 2 2 2 3 5 5 7 10 12 13 13 11 12 16 17 15 13 13 13 13 12 10 10 9 10 15 19 20 23 25 23 22 24 25 24 24 24 25 27 26 25 24 23 23 23 22 23 23 22 21 21 21 20 20 19 19 19 19 20 20 20 20 20 20 19 19 19 20 20 19 19 18 19 19 18 18 18 19 20 21 22 22 22 23 22 20
4 5 6 4 2 2 3 2 1 3 3 2 2 2 5 6 5 9 13 12 13 15 15 14 15 16 15 14 14 13 12 12 12 11 9 9 15 21 23 24 26 25 23 24 25 25 25 25 26 27 26 25 24 23 23 24 23 23 23 23 22 22 22 22 21 20 20 20 20 21 21 21 21 20 20 19 19 20 20 20 19 19 19 19 19 19 18 18 19 19 20 22 22 22 22 21 20
6 5 4 6 4 4 4 4 1 2 3 3 3 1 7 6 4 9 11 10 11 15 16 15 15 16 15 13 14 13 12 12 12 12 11 9 12 20 24 24 25 25 24 24 25 25 26 26 27 27 26 26 25 25 24 24 24 23 23 23 23 23 23 22 22 21 21 21 21 21 21 21 21 21 20 19 19 20 19 19 19 19 19 19 19 19 18 17 18 20 21 21 21 21 21 20 19
Wind_Direction
335 337 345 342 339 345 355 66 46 333 66 29 308 168 249 235 213 28 355 339 348 293 303 137 144 139 127 154 193 170 127 142 167 143 200 272 90 136 152 153 155 149 146 146 145 148 151 153 154 155 153 150 148 147 148 141 135 135 134 133 130 127 124 123 123 121 119 118 117 117 115 113 111 110 110 109 109 108 107 103 96 86 81 72 66 70 71 69 64 71 78 96 110 113 115 113 111
336 338 347 343 346 6 324 76 68 339 48 360 289 163 219 308 28 24 343 331 286 271 311 78 112 65 65 103 136 111 63 44 169 173 168 110 117 126 140 153 153 148 145 142 145 149 152 153 154 156 152 149 148 147 144 138 138 139 137 133 130 127 125 125 124 121 119 118 118 117 116 113 112 111 111 109 109 108 105 99 87 77 75 70 70 72 70 70 68 75 86 97 108 115 117 115 115
340 342 352 348 354 25 33 36 48 7 34 304 279 237 221 66 129 223 277 296 280 263 303 47 74 32 20 27 43 71 343 325 112 86 96 119 122 130 145 153 153 150 145 143 148 152 152 154 156 156 151 149 147 146 142 140 143 140 136 133 130 128 126 125 122 120 118 117 117 116 115 113 113 111 111 109 105 101 97 89 80 73 72 73 78 78 76 80 76 82 91 102 113 119 119 117 116
344 348 354 359 16 27 61 30 67 61 336 253 275 249 227 143 160 204 264 280 284 267 353 46 77 26 48 27 23 111 6 314 127 126 127 131 142 147 148 150 149 147 145 148 152 152 152 156 157 155 151 149 147 145 142 143 144 139 136 133 132 130 127 124 121 120 117 117 116 115 115 114 114 113 111 106 101 98 96 93 87 78 74 78 84 75 72 85 91 98 102 109 119 123 124 123 121
344 357 4 37 83 31 91 57 97 92 272 213 278 250 235 232 167 177 259 269 264 239 113 111 168 348 78 84 105 118 8 277 168 145 130 133 154 152 149 148 147 145 147 152 152 151 153 156 158 156 152 149 147 144 144 145 144 140 137 134 133 129 125 123 121 120 118 118 117 116 116 116 115 113 111 105 103 104 106 105 96 81 77 79 80 65 61 76 97 115 120 119 123 128 133 135 132
347 20 29 57 96 111 120 129 159 210 241 181 261 274 276 280 208 162 223 261 262 245 174 154 127 72 65 32 74 71 332 244 141 147 144 143 157 155 150 150 148 147 151 152 151 152 152 156 159 155 152 150 147 144 145 146 145 142 138 135 132 127 123 121 121 119 118 118 119 119 119 118 116 114 110 108 106 103 101 94 84 76 75 75 73 63 59 69 93 118 129 128 128 135 140 138 135
14 16 29 57 61 29 116 163 188 221 241 177 225 282 292 291 288 137 158 272 313 340 177 182 116 109 56 338 94 22 359 208 156 159 156 149 156 155 153 153 150 151 153 152 152 151 151 158 159 154 153 151 148 146 147 147 146 143 138 136 131 126 123 121 120 117 117 119 120 122 122 121 118 114 111 110 107 102 97 90 82 71 71 76 72 62 61 67 88 114 128 133 136 140 141 138 134
37 26 28 91 89 14 104 165 205 211 243 221 236 260 266 276 291 305 140 150 315 309 224 174 142 132 281 10 86 6 27 110 157 155 153 149 155 155 156 156 152 153 154 152 150 149 155 160 157 155 155 152 149 146 148 148 146 142 138 135 130 127 124 122 121 119 120 120 122 123 123 119 115 114 111 109 108 109 104 96 87 75 78 82 76 67 66 66 81 115 130 139 143 143 143 138 132
48 39 78 111 158 44 104 180 247 229 258 265 262 260 268 268 287 317 168 103 297 279 289 186 156 169 224 47 79 359 36 111 137 143 148 150 154 155 157 158 157 155 152 149 148 153 161 160 156 156 156 154 150 147 149 148 145 141 136 134 131 128 125 124 122 121 123 122 122 121 119 114 110 105 97 96 95 94 84 84 86 84 90 88 85 76 71 66 75 111 134 141 146 148 147 141 135
44 19 139 93 142 182 217 246 255 247 258 260 268 267 282 283 305 328 316 339 273 264 296 173 124 138 127 74 71 351 85 131 134 137 146 150 153 155 156 158 159 154 150 150 153 160 162 159 156 156 156 153 149 149 150 147 143 139 137 137 133 130 128 127 124 122 120 118 118 116 114 107 98 89 84 83 78 75 71 74 86 98 104 98 96 84 76 71 72 101 133 145 153 160 157 153 150
51 359 125 143 151 197 211 224 243 245 264 296 296 266 265 275 308 295 285 329 286 241 287 274 119 129 99 86 67 120 147 141 137 139 146 150 151 154 155 156 157 153 151 153 158 161 159 158 158 156 154 152 151 152 150 146 143 141 141 140 135 132 130 127 124 122 120 118 116 113 109 101 93 87 84 81 75 71 67 70 87 111 122 115 109 97 85 77 73 91 128 152 163 175 175 176 180
127 328 96 170 193 204 199 200 227 237 274 321 289 268 257 265 300 269 260 321 279 302 266 208 169 131 96 80 118 139 146 146 144 141 146 148 149 152 153 154 155 154 153 155 158 155 154 157 158 157 154 153 155 153 150 148 146 146 145 142 138 133 128 127 125 124 123 121 118 113 106 100 96 91 87 82 77 71 66 69 87 114 130 128 121 111 96 85 78 84 113 151 172 193 204 210 225
149 155 109 184 199 174 177 189 219 226 276 275 240 263 284 276 278 264 218 142 233 316 281 204 145 99 93 91 128 149 153 154 146 140 144 144 147 150 151 153 154 155 153 154 153 151 154 157 159 159 155 156 157 154 152 151 150 149 147 143 139 134 131 132 129 127 125 121 117 111 104 99 95 93 91 87 80 73 70 71 82 103 124 131 128 122 108 93 84 82 98 131 167 195 219 237 250
156 157 134 195 207 148 164 163 193 193 247 255 238 259 278 246 249 243 75 344 275 268 280 172 133 102 102 131 146 175 159 151 143 138 140 141 146 147 149 152 153 152 150 151 151 153 157 160 162 159 157 160 159 155 153 153 152 150 147 143 139 138 137 135 131 129 126 121 115 107 101 96 96 97 95 90 83 77 73 70 74 86 104 120 128 130 120 100 89 82 87 107 142 179 216 240 253
165 147 111 154 173 171 199 180 176 184 232 245 230 233 258 251 234 347 17 276 286 236 143 100 140 122 167 179 186 173 149 144 140 137 137 137 142 143 148 149 149 149 148 150 153 157 161 163 163 161 161 161 159 156 154 155 154 151 148 144 143 143 140 137 133 130 125 121 114 108 102 98 98 100 99 93 86 80 76 71 69 74 82 89 99 118 127 118 97 82 80 90 107 130 183 241 257
146 103 91 175 197 202 216 186 169 183 233 236 237 198 272 277 239 26 273 174 107 315 53 79 283 95 172 197 157 139 141 141 137 136 134 134 137 140 144 144 144 147 149 153 156 161 163 165 164 163 163 161 160 158 156 157 156 154 151 149 149 147 143 139 137 132 126 120 115 109 103 99 96 98 101 96 88 83 78 74 69 69 73 77 81 87 104 162 137 95 84 78 81 87 86 87 253
92 95 149 210 200 200 192 174 177 185 224 236 251 202 206 273 300 115 315 76 101 46 38 21 341 37 141 128 123 132 139 139 138 136 132 133 136 137 139 141 145 149 153 155 160 165 166 167 167 166 165 163 162 159 159 159 158 158 155 155 154 149 145 141 139 133 126 121 116 110 105 101 95 94 98 95 89 82 76 75 72 69 69 71 72 73 75 127 234 221 134 58 51 51 45 43 53
134 132 197 214 187 193 178 176 188 172 206 222 222 200 197 244 309 144 23 48 89 67 31 28 36 48 82 106 123 133 138 139 141 139 135 137 138 138 140 147 152 155 158 159 163 170 173 172 171 170 168 166 164 161 161 160 162 163 160 160 157 152 147 144 141 134 127 121 119 114 110 107 100 95 93 90 86 79 76 75 73 69 66 65 62 62 63 60 360 252 257 293 354 24 25 25 28
182 142 201 221 182 187 181 176 185 172 195 219 227 193 186 221 225 171 194 149 138 85 44 72 75 77 94 112 127 134 139 142 145 143 140 145 148 147 149 156 161 161 162 164 167 173 179 178 175 174 171 170 167 164 162 163 168 166 164 163 158 155 151 147 143 136 129 124 122 119 117 112 107 101 91 85 76 73 75 73 72 69 66 63 59 55 54 57 59 54 15 321 14 35 36 34 32
191 153 212 230 180 191 201 181 190 198 194 220 242 183 172 223 181 158 172 164 167 146 142 123 117 123 122 127 133 138 142 145 150 147 147 154 157 156 158 163 166 167 166 170 175 178 183 183 182 180 175 173 169 166 166 170 172 168 165 163 161 160 155 148 142 138 134 128 121 117 119 115 110 105 93 81 67 69 69 60 63 69 74 70 62 56 55 57 57 58 65 69 60 49 37 31 29
180 191 213 218 170 194 220 198 197 206 197 215 234 143 170 227 127 130 146 142 231 208 183 160 151 146 142 144 145 147 148 150 155 154 155 158 161 165 168 169 171 172 169 173 180 184 187 187 187 183 179 176 171 169 172 174 173 170 167 164 164 164 157 149 141 139 136 128 116 113 118 112 107 98 86 71 58 62 58 41 35 57 81 80 72 68 65 61 59 62 65 70 67 53 41 31 29
196 233 205 191 176 198 228 208 206 208 197 224 239 176 200 180 84 124 152 169 238 213 177 163 157 152 152 152 151 153 152 156 160 161 162 161 166 173 175 174 176 175 172 176 182 186 189 189 189 186 182 179 174 174 176 176 175 173 170 166 166 165 160 150 142 139 134 125 116 113 110 99 93 85 70 55 48 47 41 31 23 30 69 83 83 76 71 63 60 65 68 71 67 52 45 35 23
221 253 213 208 190 202 235 204 217 212 184 211 222 219 158 102 68 173 140 199 248 242 175 155 156 155 152 152 154 159 160 163 167 170 169 168 174 179 177 176 178 178 178 181 182 185 188 189 190 188 186 181 177 179 179 179 178 176 172 168 167 166 164 155 146 141 136 131 122 117 104 74 64 63 52 46 43 34 25 19 16 10 35 73 76 73 67 57 53 57 63 67 64 54 45 35 24
220 244 253 239 201 207 237 206 226 221 204 219 223 331 55 113 247 146 72 303 282 245 161 147 149 152 152 156 162 164 164 168 173 175 174 177 181 180 179 179 180 182 185 185 183 183 186 190 191 190 189 184 181 184 183 183 181 178 176 170 167 167 166 161 154 148 146 152 143 130 92 34 27 34 37 39 34 22 24 16 11 8 32 66 72 75 65 52 46 45 53 65 66 60 49 41 33
225 224 238 240 208 224 245 247 248 233 231 249 335 308 270 196 183 95 39 344 353 129 137 141 145 151 159 165 166 165 168 171 173 176 181 185 183 179 180 183 181 185 191 190 185 183 186 192 193 192 191 187 187 187 187 189 182 179 181 174 169 170 170 167 165 160 161 171 162 148 106 66 56 42 23 29 29 21 41 35 36 48 58 70 77 79 70 58 48 44 50 54 53 41 36 39 32
219 202 210 230 238 248 244 245 247 233 232 170 172 278 297 216 141 84 336 35 97 126 132 143 149 157 168 170 171 170 172 174 173 178 184 186 182 179 181 183 185 189 196 196 191 187 189 192 195 195 193 190 190 190 191 192 184 183 185 178 174 175 175 174 173 171 176 187 176 166 167 127 120 147 145 180 156 39 97 105 99 107 90 84 89 83 82 76 67 65 53 38 23 11 18 26 23
176 172 207 220 232 257 228 226 241 231 218 165 163 229 249 302 195 194 251 124 129 133 139 151 156 165 171 173 175 174 177 177 175 177 180 181 182 182 182 185 190 193 197 198 195 192 190 191 195 196 195 193 192 193 195 193 187 187 187 181 180 182 180 181 181 184 193 191 186 185 191 173 155 166 162 150 129 96 118 120 118 125 120 107 100 89 89 85 77 61 40 30 18 18 21 19 15
110 149 196 235 227 247 232 222 233 202 229 183 163 189 117 5 297 189 165 140 142 142 150 160 162 170 173 174 175 172 180 177 176 180 182 182 184 184 183 186 190 193 198 199 196 194 191 190 193 195 196 196 196 198 200 197 192 191 190 184 185 189 188 190 193 203 210 198 200 203 202 204 198 184 151 125 111 117 129 130 130 132 125 112 101 93 91 82 69 51 37 36 28 26 23 20 18
193 135 136 270 231 237 235 229 210 168 224 179 149 184 225 196 231 181 152 144 146 146 156 165 167 172 171 173 174 173 177 172 179 192 193 185 185 187 184 187 189 191 197 197 195 193 191 190 191 193 194 198 200 202 204 202 199 196 192 187 188 194 197 204 209 216 216 202 206 214 220 223 199 153 137 130 118 124 132 135 138 130 118 111 106 99 94 83 67 50 37 28 21 17 14 19 17
159 126 158 261 277 247 227 211 199 184 202 157 145 214 236 228 226 176 156 149 146 151 162 165 169 172 170 174 175 178 176 174 186 195 194 185 187 190 185 188 189 190 193 193 193 193 191 190 191 190 189 195 200 202 206 206 203 199 195 192 196 205 214 221 220 217 210 201 209 222 229 215 164 139 143 142 127 130 138 138 136 126 118 116 111 101 90 77 49 30 23 11 6 9 11 15 15
148 150 175 198 222 252 197 181 185 195 207 149 156 236 245 248 210 174 162 154 152 158 167 165 168 171 172 177 176 184 185 184 189 188 188 185 187 191 188 190 191 190 190 191 193 192 191 192 193 190 189 196 199 202 207 206 203 202 202 203 207 218 223 222 212 202 198 197 205 211 207 176 154 151 151 147 134 140 148 142 134 125 120 114 102 85 67 51 35 23 21 13 8 13 17 16 19
146 181 201 192 212 264 239 192 181 188 202 143 165 222 248 240 192 178 166 160 158 158 165 166 169 171 173 179 179 185 187 183 184 183 187 186 186 191 192 192 191 191 191 192 192 190 192 194 195 192 193 197 197 200 204 204 204 205 207 209 210 213 208 197 186 184 188 188 187 186 181 164 164 160 154 154 151 153 152 141 131 121 114 95 82 72 52 37 26 14 10 5 2 4 5 7 14
221 204 201 194 210 233 282 258 194 176 143 159 186 178 209 212 184 185 173 165 163 157 165 170 171 174 174 178 179 182 182 181 185 185 185 183 184 191 195 194 193 193 194 194 191 190 193 194 193 193 195 196 194 197 200 201 203 203 199 194 193 191 182 172 166 167 169 168 166 163 163 164 162 158 158 169 170 161 151 139 126 113 96 66 56 43 28 20 8 357 356 355 354 354 351 356 6
228 207 199 196 192 185 206 270 228 164 153 189 196 171 215 205 173 179 176 169 165 161 170 176 175 175 175 175 180 185 188 193 195 184 179 179 183 190 195 194 193 194 195 194 191 192 195 193 193 194 196 196 193 196 197 196 195 189 182 178 177 171 161 156 151 149 149 149 150 150 156 157 154 156 165 175 176 164 151 140 127 107 54 14 9 7 6 358 346 342 348 352 355 358 356 357 4
197 173 175 147 131 174 192 221 215 167 171 185 175 187 226 187 166 175 180 174 169 168 171 176 177 177 177 178 186 190 194 201 198 182 175 177 182 188 192 191 191 193 193 193 191 193 195 194 194 197 198 198 196 195 192 188 183 177 169 163 160 153 145 143 142 140 137 142 147 148 152 151 151 159 165 173 175 164 155 146 132 74 360 344 343 347 348 343 338 341 355 8 11 16 13 8 18
172 145 152 160 144 196 201 213 212 166 168 186 172 181 185 163 170 173 175 180 174 168 165 172 180 182 183 183 188 191 198 203 187 176 173 174 182 186 186 187 188 190 190 191 190 191 194 194 196 196 196 201 197 190 185 179 171 164 159 150 142 138 139 138 135 136 136 142 145 144 145 145 151 157 157 165 168 161 158 153 329 332 331 326 328 338 359 3 357 360 29 43 36 41 39 37 60
142 134 150 171 155 202 217 222 222 156 153 203 174 163 168 167 174 174 172 180 175 165 167 181 186 188 192 189 190 189 195 188 166 171 172 172 179 180 179 180 181 183 187 190 189 189 192 194 195 190 191 195 193 187 182 177 169 159 150 143 137 136 139 136 132 135 139 142 143 142 144 146 152 154 155 163 165 171 180 263 296 301 306 317 341 18 30 28 35 48 72 71 62 60 54 49 65
99 137 152 175 172 199 221 212 227 173 165 240 162 153 173 173 175 180 174 176 180 173 176 188 188 188 191 191 191 184 178 162 157 168 171 170 173 173 173 175 177 178 180 184 187 186 188 191 191 186 184 186 186 185 182 177 174 167 155 147 142 137 137 137 134 135 137 139 141 142 144 145 149 152 155 165 174 203 240 258 262 263 294 17 36 49 53 61 81 98 102 87 75 66 58 51 54
54 100 134 169 196 205 241 237 326 165 176 236 168 152 175 181 177 180 178 180 187 182 183 188 188 187 189 192 189 176 170 168 168 168 169 170 168 169 171 172 176 177 176 180 183 183 185 188 188 184 182 183 183 183 181 176 171 169 161 154 148 139 136 138 137 137 139 142 140 138 139 140 145 149 152 166 185 200 229 231 206 143 94 64 58 72 84 91 99 115 117 100 84 73 64 55 53
90 78 121 169 193 175 212 243 31 55 125 151 142 130 168 184 170 168 177 172 160 172 178 182 190 193 195 196 190 186 180 174 172 166 169 172 168 168 169 170 172 171 173 176 179 182 184 187 189 188 186 184 183 181 179 174 164 160 157 152 149 142 137 137 138 138 140 142 137 133 134 133 142 150 154 171 185 180 188 183 150 115 94 82 83 94 95 95 100 108 109 100 86 78 72 62 56
162 129 168 179 168 169 185 183 96 56 54 117 116 92 202 191 179 172 158 143 144 158 163 171 190 194 194 196 196 199 192 178 173 169 173 172 166 169 168 168 169 168 174 179 181 184 186 188 190 191 188 182 182 182 178 171 160 154 148 143 141 137 135 138 140 137 136 137 135 132 128 125 132 138 151 162 164 168 163 150 131 108 97 94 96 96 94 94 94 96 96 92 84 83 83 73 64
215 199 213 198 163 147 87 108 101 74 14 220 123 108 256 204 195 190 167 168 173 165 175 186 188 187 193 201 202 199 190 180 176 173 177 170 164 167 166 167 169 171 179 184 186 189 191 191 190 188 182 178 181 182 178 172 165 160 152 147 144 140 137 141 145 142 139 140 136 131 125 115 114 117 130 141 146 154 149 133 119 108 103 101 100 97 95 91 88 89 89 90 88 87 89 83 75
229 226 210 203 179 86 63 91 98 131 200 238 158 150 204 204 204 198 177 183 184 173 188 196 191 193 200 206 205 198 186 175 174 178 180 172 166 163 162 167 172 177 184 186 188 192 194 192 188 182 173 175 183 179 175 174 168 164 162 158 156 152 146 143 147 149 147 147 139 129 122 109 104 110 121 131 138 144 136 125 116 110 106 103 102 97 94 91 89 90 89 89 89 87 86 87 85
223 217 185 185 187 219 134 89 97 183 178 222 206 136 137 198 210 193 175 183 189 183 194 203 203 204 205 206 206 199 190 175 173 178 176 175 172 165 164 170 176 183 187 189 189 192 195 189 180 174 168 179 184 175 174 177 171 167 166 162 158 157 155 147 148 151 148 148 139 127 119 112 110 116 125 132 136 136 129 123 116 111 108 104 101 96 95 95 94 93 90 88 86 82 81 84 83
215 195 172 177 185 198 175 104 103 130 108 194 246 177 148 234 222 180 177 192 199 194 199 208 210 209 206 205 209 205 192 181 176 177 174 173 173 172 171 173 180 186 188 189 189 192 192 182 181 184 180 183 181 173 174 177 175 173 168 163 157 156 157 151 151 151 148 146 136 126 120 118 121 126 132 136 136 133 126 121 116 111 108 105 103 101 100 98 95 91 88 85 84 82 80 80 79
194 166 149 138 166 167 142 138 129 95 112 211 221 193 176 268 231 173 180 198 206 205 206 212 212 210 208 205 209 207 192 183 179 175 173 169 171 174 175 177 184 188 188 187 188 191 185 181 192 192 182 180 178 175 175 174 175 175 171 168 162 157 156 154 152 149 147 145 134 127 124 125 131 135 137 138 137 132 124 120 116 112 110 108 107 104 101 96 92 90 86 85 85 83 81 79 78
139 134 119 80 66 57 69 97 101 110 247 225 202 192 186 249 242 186 184 193 199 203 209 213 212 208 206 205 207 204 193 184 176 173 171 165 166 171 174 181 188 189 187 184 188 191 181 182 188 179 174 182 180 176 176 174 175 176 176 175 169 164 162 159 156 150 147 145 135 130 130 133 138 140 140 140 137 131 125 120 115 115 114 111 108 103 99 96 93 92 90 88 85 84 83 81 81
138 123 133 117 79 25 35 11 52 164 240 234 190 173 165 225 246 209 203 198 194 198 205 207 208 205 202 202 203 200 194 183 172 171 172 164 163 168 172 180 185 185 183 179 187 192 182 178 173 167 178 185 179 179 179 176 176 178 179 178 176 173 170 167 162 155 151 146 138 136 139 141 141 141 142 140 137 132 127 122 120 120 116 111 107 102 100 98 96 94 92 89 86 85 85 84 83
182 129 138 152 168 95 168 244 180 204 247 269 174 148 149 239 238 205 206 208 199 200 205 205 204 200 196 197 198 195 191 183 174 172 172 170 170 169 170 175 177 178 179 176 181 189 187 180 169 171 184 181 175 178 178 176 178 181 181 181 180 177 173 171 166 159 156 150 146 146 148 148 145 144 144 140 138 135 131 127 124 122 116 111 108 104 103 100 98 95 90 89 89 89 89 87 86
194 169 156 168 163 162 197 211 235 225 266 320 158 148 171 260 252 200 196 206 207 204 208 206 201 197 192 192 191 189 189 185 178 173 171 173 177 174 170 173 173 173 175 174 174 181 187 180 170 177 187 182 176 175 174 177 180 181 183 183 182 180 174 171 167 162 159 153 151 153 153 153 149 146 145 141 140 139 135 130 126 121 117 114 111 108 107 103 98 93 89 90 93 94 93 91 89
197 186 139 159 166 171 193 193 194 208 233 347 75 163 181 199 235 208 196 210 212 202 201 189 177 182 180 182 187 187 190 185 177 174 172 172 178 179 176 174 174 171 169 169 172 178 182 178 171 176 182 181 179 175 174 179 179 179 182 183 182 181 176 170 165 163 159 154 154 155 155 155 151 148 145 142 142 142 138 132 127 122 118 116 115 113 111 105 99 94 92 94 97 98 96 93 90
203 141 118 184 187 149 138 169 168 156 131 66 175 212 215 198 251 258 223 237 205 173 167 152 153 163 164 177 188 189 189 182 175 173 169 170 176 180 180 177 175 172 168 169 174 179 181 179 175 176 177 177 177 176 175 178 177 177 180 182 182 179 174 168 163 159 156 155 156 157 156 155 153 149 145 144 144 143 140 135 129 125 121 118 118 117 113 107 102 97 97 99 100 101 97 93 90
170 157 176 202 166 121 109 191 68 95 142 219 213 248 302 288 277 307 8 184 174 166 167 163 162 162 167 180 186 188 189 178 173 173 167 166 174 179 180 177 173 173 172 173 177 182 183 181 178 176 174 172 174 176 176 176 175 175 177 181 181 177 173 170 164 158 154 154 156 157 157 155 153 150 147 147 146 144 143 138 132 128 125 122 120 120 116 111 105 100 100 102 103 102 97 91 86
148 193 196 145 108 96 97 148 10 62 168 259 269 216 259 175 243 323 78 154 178 180 174 168 164 165 174 184 184 186 186 174 168 171 167 165 171 178 178 176 174 176 178 177 178 182 185 183 180 176 172 169 171 175 175 175 175 176 177 178 177 175 174 171 165 159 155 154 156 159 159 156 153 152 152 150 149 146 144 140 136 133 129 125 124 124 120 114 108 103 101 103 105 102 96 89 83
156 186 187 137 168 218 86 139 160 107 165 277 300 243 236 196 214 258 190 180 185 182 169 163 169 177 182 183 183 183 179 174 169 166 169 167 168 173 174 171 173 177 178 175 174 178 181 181 179 175 172 170 172 174 175 176 178 178 177 177 176 175 173 170 165 160 158 157 159 161 161 158 156 157 157 155 153 149 146 143 140 137 133 129 128 127 123 117 110 105 104 105 105 100 94 90 83
107 150 173 169 179 196 174 149 165 154 163 226 274 276 255 229 217 211 207 196 180 173 173 177 183 187 186 182 180 179 177 176 171 166 170 169 166 168 169 166 167 171 172 168 169 175 176 175 173 172 170 170 173 177 177 176 177 177 175 174 175 174 172 170 166 162 161 161 163 164 162 159 159 161 161 159 156 152 149 146 143 141 138 134 132 129 125 120 112 107 107 107 104 98 93 90 86
160 166 181 186 169 154 178 182 138 139 148 171 197 264 259 244 209 200 211 204 182 177 180 187 192 190 187 182 177 174 172 172 172 169 167 167 165 165 165 165 163 163 163 163 167 172 173 172 170 169 169 171 173 176 176 175 174 175 174 173 174 173 171 169 166 164 163 163 165 165 163 162 162 163 163 161 158 155 152 150 147 145 143 139 136 132 128 122 115 111 110 107 102 97 93 91 87
168 175 190 187 160 119 163 209 251 113 140 166 157 231 266 256 212 205 209 195 189 191 186 187 193 190 185 180 173 170 168 168 170 169 165 163 161 158 160 162 159 156 159 162 166 169 169 169 169 169 170 172 174 175 175 173 172 174 175 174 173 172 170 168 165 165 165 166 167 165 164 164 164 164 166 165 160 158 156 154 152 150 148 144 140 135 131 125 117 113 112 108 102 98 95 91 86